Temperature
17 20 21 19 18 18 18 18 18 19 17 17 18 18 18 15 14 14 13 13 12 12 12 12 12 13 13 12 13 13 12 13 14 14 13 13 12 11 11 11 10 10 10 11
20 19 17 17 17 17 17 18 18 18 17 16 17 17 17 15 13 12 12 11 11 10 11 10 11 12 12 12 12 11 12 12 13 13 13 12 11 11 10 10 10 10 10 11
18 17 16 17 17 17 18 17 17 16 17 17 16 18 16 14 13 11 11 10 10 10 9 9 10 11 12 12 11 11 12 12 13 13 13 12 12 11 10 10 10 10 10 10
17 16 16 16 16 16 18 15 15 16 16 16 15 18 17 15 13 11 10 10 9 9 8 8 8 9 11 11 11 9 11 11 12 12 12 12 11 10 10 9 9 9 9 9
15 15 15 16 15 15 16 15 15 15 15 15 16 16 18 15 12 10 10 9 9 8 7 7 7 7 8 9 10 9 10 11 11 11 11 11 10 10 9 9 9 9 8 9
15 14 14 14 14 14 14 16 17 14 15 16 15 15 17 14 10 9 9 9 8 7 7 7 7 7 7 7 8 8 8 10 10 10 10 10 10 9 9 8 8 8 8 8
15 14 14 13 15 15 15 15 17 18 17 17 14 14 14 9 8 8 8 8 8 8 7 7 6 6 6 6 7 6 7 7 8 8 9 9 9 9 9 8 8 8 8 7
13 14 13 12 13 13 13 13 14 14 15 16 15 14 12 8 7 8 8 8 8 7 7 6 6 5 5 5 5 5 6 6 6 7 8 9 9 9 9 8 8 8 7 7
13 14 13 12 11 12 11 13 12 13 13 12 15 14 10 8 9 9 8 8 7 6 6 6 5 5 5 4 4 4 4 5 6 6 7 8 8 8 8 8 8 8 7 7
11 10 11 11 11 11 10 11 8 11 12 12 14 15 14 10 9 9 9 8 7 6 6 5 5 4 4 4 4 3 3 3 5 6 6 6 7 7 8 8 8 8 7 7
10 10 11 12 11 10 11 11 11 11 11 11 11 12 9 9 9 8 8 7 6 5 5 5 5 5 4 4 3 2 2 2 3 5 5 5 5 6 7 8 8 7 7 6
9 9 11 11 10 9 9 10 10 9 10 9 9 10 10 10 8 7 6 6 5 5 4 5 4 4 4 3 2 1 1 1 1 2 3 4 4 4 5 6 7 6 6 5
8 9 10 12 10 9 8 9 8 7 7 7 8 9 11 9 7 6 5 5 5 4 4 4 4 3 3 3 2 1 0 1 -1 -0 -0 1 3 3 2 4 4 4 5 4
6 8 9 10 10 8 8 8 7 6 6 7 7 8 8 7 6 6 5 5 4 4 4 3 3 3 3 3 1 -0 -1 0 -0 -1 -2 -2 -1 -1 1 2 3 2 2 2
6 8 7 7 7 7 6 6 5 5 5 5 6 5 6 6 5 5 4 4 3 3 3 2 2 2 2 2 1 -0 -1 -1 -2 -2 -2 -2 -2 -2 -1 1 1 0 0 1
5 5 5 6 5 5 5 5 5 5 5 5 5 5 6 4 4 4 3 3 2 2 1 0 0 0 0 1 -0 -0 -2 -2 -3 -3 -4 -4 -3 -3 -2 -1 -2 -2 -2 -1
4 5 5 6 4 5 5 5 5 5 5 4 3 4 5 4 3 3 2 1 1 -0 -1 -2 -2 -1 -1 -1 -1 -2 -2 -4 -4 -4 -5 -4 -4 -4 -4 -3 -4 -4 -3 -3
4 4 4 4 4 3 5 5 5 4 4 5 4 4 4 3 2 1 1 1 -1 -1 -2 -2 -2 -2 -2 -2 -2 -3 -4 -5 -5 -5 -5 -5 -5 -5 -5 -5 -4 -4 -4 -4
4 4 3 1 3 4 5 4 4 3 3 5 4 3 2 1 0 2 1 -1 -2 -2 -2 -2 -2 -2 -3 -3 -3 -4 -5 -5 -6 -6 -6 -6 -6 -5 -5 -5 -5 -5 -5 -5
3 3 4 2 2 2 5 5 3 3 3 5 3 2 0 -1 -0 1 -2 -3 -3 -3 -2 -2 -3 -3 -4 -4 -5 -5 -6 -7 -7 -7 -7 -7 -6 -5 -5 -6 -6 -6 -6 -6
3 3 2 2 2 3 5 4 3 2 3 3 2 0 -2 -2 -2 -3 -3 -4 -4 -4 -3 -3 -4 -5 -5 -6 -6 -6 -7 -7 -8 -8 -7 -7 -7 -7 -7 -7 -7 -8 -8 -8
3 3 2 2 1 0 3 3 2 3 3 2 -0 -2 -4 -4 -4 -4 -5 -5 -6 -6 -5 -5 -5 -6 -7 -7 -8 -8 -8 -8 -9 -9 -8 -8 -9 -8 -8 -9 -9 -9 -9 -9
1 3 3 3 4 5 4 4 3 2 1 -1 -3 -4 -5 -5 -6 -6 -6 -7 -7 -8 -8 -8 -7 -7 -8 -8 -9 -10 -9 -9 -10 -10 -10 -10 -10 -9 -9 -10 -10 -10 -10 -10
3 1 2 2 3 4 3 3 2 0 -2 -3 -4 -5 -7 -7 -7 -8 -8 -8 -9 -9 -9 -9 -9 -9 -9 -10 -10 -10 -10 -10 -11 -11 -11 -11 -10 -10 -10 -10 -10 -11 -11 -11
3 1 1 2 3 3 3 2 0 -2 -4 -5 -6 -7 -8 -8 -9 -9 -9 -10 -10 -10 -10 -10 -10 -11 -12 -12 -11 -11 -11 -11 -11 -11 -11 -11 -11 -11 -11 -11 -11 -11 -11 -11
1 2 3 3 4 3 2 1 -2 -4 -6 -6 -7 -7 -8 -9 -10 -10 -10 -11 -11 -11 -11 -12 -12 -12 -12 -12 -12 -11 -11 -11 -12 -12 -12 -12 -12 -12 -12 -12 -12 -12 -11 -12
Wind_Speed
2 3 3 4 4 4 5 8 11 10 4 6 10 12 7 12 15 17 19 21 22 22 24 25 23 16 10 10 11 12 11 10 8 6 6 6 5 5 5 3 3 3 4 5
3 2 5 3 2 4 9 12 11 3 2 6 10 10 7 12 14 17 18 20 21 24 26 27 26 22 15 12 13 13 13 12 11 8 7 5 5 5 4 4 4 3 3 3
4 5 5 4 5 9 10 8 7 10 14 7 6 5 12 10 13 16 18 19 23 25 26 27 27 27 22 16 13 13 13 12 12 9 6 5 4 5 6 6 5 4 4 4
2 4 6 5 4 6 6 4 11 16 13 5 3 3 11 8 10 16 19 21 23 23 23 25 27 29 29 23 15 13 12 12 11 10 8 9 9 9 10 8 6 4 4 4
3 6 6 4 4 5 6 13 15 15 11 7 3 5 5 5 7 16 19 21 21 20 21 23 25 26 26 25 18 13 13 12 11 10 10 10 10 10 8 8 7 6 5 5
3 2 3 5 5 3 10 14 12 5 5 4 3 2 2 4 8 13 18 20 19 18 19 22 24 24 24 25 23 18 16 15 14 12 11 11 11 11 10 9 8 7 6 5
5 2 3 5 8 4 12 13 6 3 4 3 3 5 1 8 8 12 16 18 17 17 19 22 24 25 26 27 26 23 20 18 17 14 13 12 11 11 11 10 8 8 6 6
6 3 5 7 6 7 7 6 5 6 10 12 10 5 3 8 7 11 14 18 18 19 21 21 22 23 23 24 24 24 23 21 19 18 16 14 13 11 10 10 8 7 5 4
5 4 4 4 3 3 3 2 2 6 9 9 4 2 5 4 9 17 21 24 24 24 23 22 23 23 23 23 23 23 23 23 21 21 21 17 14 13 12 9 7 5 3 1
1 6 3 3 0 4 3 2 2 2 5 9 14 14 3 6 19 26 28 26 24 25 23 22 23 24 24 23 22 22 22 21 22 21 19 15 12 12 11 8 7 5 4 1
3 4 4 6 4 7 4 1 1 3 5 7 12 8 7 14 24 27 29 27 27 26 22 22 26 26 24 23 22 22 23 24 22 21 17 16 15 14 11 9 7 5 5 1
4 3 5 5 4 2 1 2 3 6 8 9 11 11 7 23 26 27 29 29 27 23 25 28 29 27 24 21 20 19 21 21 21 21 13 11 11 9 10 9 7 5 6 3
3 2 5 2 3 3 2 4 8 8 7 9 12 11 14 27 28 30 30 30 27 28 32 32 30 27 25 21 18 17 19 18 17 15 9 3 5 8 9 6 6 4 6 5
2 4 6 9 10 8 12 16 12 6 7 13 18 24 25 26 30 33 32 31 31 34 34 32 29 27 25 22 17 16 15 14 13 10 7 3 0 5 7 8 8 7 5 4
3 3 6 12 14 14 17 17 10 9 13 12 17 21 25 28 32 35 35 35 36 35 34 32 30 28 26 24 19 11 10 10 9 7 6 5 4 2 3 8 8 4 3 5
2 2 3 7 7 10 15 14 10 10 8 13 18 22 25 29 34 36 35 36 34 32 33 33 32 29 25 23 18 7 6 7 7 7 7 6 5 5 6 7 3 2 4 5
2 3 5 4 7 14 8 1 5 9 11 14 17 22 27 36 36 35 36 32 28 30 30 30 28 25 22 18 10 5 5 6 7 8 8 8 8 7 6 4 0 3 6 5
2 2 2 5 8 5 3 4 6 12 15 18 18 22 30 32 33 32 27 26 28 29 26 24 21 19 17 10 6 5 6 7 8 8 8 8 7 5 4 6 7 6 5 4
3 2 2 3 7 12 5 3 6 14 23 14 19 29 32 32 29 22 22 27 28 27 22 20 17 14 10 8 7 6 8 8 8 8 9 9 8 4 5 7 6 4 4 5
2 3 3 2 5 5 3 4 9 14 11 17 27 29 29 30 23 21 26 28 27 24 20 18 14 12 11 10 9 9 10 10 10 9 9 9 10 7 7 6 5 4 3 3
1 2 4 6 6 8 7 8 12 11 17 28 28 25 23 19 21 25 27 25 25 23 20 16 13 13 13 12 10 10 10 11 10 9 8 9 10 9 7 6 5 4 3 2
3 3 3 3 5 6 3 11 11 19 23 25 23 22 21 23 23 22 22 22 22 20 18 15 13 13 13 13 11 11 11 10 9 8 8 8 9 8 7 6 5 5 4 3
3 3 4 6 9 12 15 18 20 20 20 20 19 19 18 19 18 18 19 18 18 18 16 13 12 12 12 13 13 12 12 10 9 9 9 9 9 8 7 6 6 5 4 4
3 4 6 8 11 15 17 20 18 15 17 18 17 14 15 15 16 17 16 16 15 15 14 13 12 12 12 13 13 13 13 11 10 9 9 9 9 9 8 6 5 4 4 5
6 4 7 11 15 17 13 16 16 15 15 16 15 12 12 14 14 15 14 14 13 13 12 12 11 11 12 12 13 13 13 12 10 9 9 9 8 8 7 6 5 5 5 6
5 6 6 9 15 14 19 19 15 13 14 13 12 12 12 12 13 13 12 12 12 12 12 11 11 11 12 12 13 13 13 12 11 10 9 9 9 8 8 8 7 6 6 9
Wind_Direction
356 276 318 9 8 348 317 303 300 310 355 330 319 316 19 69 55 51 44 38 31 26 20 15 10 355 311 272 254 244 239 232 223 217 215 214 211 205 198 190 197 209 204 203
266 4 19 350 327 302 301 299 309 312 329 313 311 304 114 90 66 55 45 33 24 20 16 11 9 4 342 297 265 248 241 237 232 231 231 232 212 200 179 156 143 146 157 166
349 29 355 322 304 310 306 305 319 312 315 298 299 212 147 114 69 50 41 32 27 22 13 9 6 4 356 334 284 254 246 242 237 230 214 200 188 186 185 185 172 154 152 151
37 19 353 330 334 328 316 339 304 301 307 310 351 225 175 147 61 36 27 22 20 16 11 9 6 4 0 346 312 273 263 254 244 231 221 216 218 216 209 202 193 182 185 181
21 3 359 3 355 322 326 314 294 295 286 276 214 235 172 138 40 24 17 14 15 12 7 7 6 2 359 356 340 297 284 269 253 243 243 240 239 234 218 209 206 207 200 197
18 14 5 344 315 299 316 310 291 260 253 244 142 279 243 68 32 16 13 11 8 6 2 2 2 358 356 358 356 332 294 282 268 256 249 243 237 225 214 213 216 217 208 192
344 62 53 3 335 341 348 343 322 266 264 325 114 284 108 99 52 20 8 359 356 356 357 358 358 356 356 355 353 347 326 300 286 275 264 251 241 228 217 215 221 223 211 200
350 337 28 5 355 332 358 354 341 313 311 308 294 278 109 118 48 8 355 347 350 353 355 352 350 348 345 344 345 343 336 319 300 284 266 254 244 234 226 220 214 218 219 215
346 301 353 24 5 356 333 349 344 289 290 291 282 219 163 152 356 356 353 349 349 347 343 340 339 336 334 331 332 337 336 326 311 296 272 251 253 251 238 222 216 194 184 206
5 296 325 338 328 57 13 6 297 267 303 300 297 302 353 21 357 353 348 345 338 332 330 332 331 328 327 327 326 329 331 325 314 298 278 258 239 242 240 217 194 160 133 70
348 277 312 324 347 318 323 342 11 302 279 290 304 311 80 17 355 346 340 338 333 332 328 325 326 325 321 320 325 327 330 329 324 310 271 237 225 215 202 204 174 153 124 73
7 301 282 305 353 310 251 68 15 316 290 278 281 285 40 358 350 343 335 331 330 328 323 321 322 320 317 319 324 324 329 332 332 324 286 224 195 205 211 192 157 154 123 108
338 275 294 252 172 146 218 280 314 311 277 263 262 273 339 339 338 337 333 329 324 322 322 323 322 321 317 320 322 323 331 337 338 340 328 280 195 196 209 186 146 127 100 79
319 258 256 285 308 305 287 289 299 286 263 284 279 293 316 326 330 334 330 324 318 318 320 319 318 318 317 323 321 321 328 338 344 350 343 359 260 188 173 149 105 83 83 84
18 278 274 278 291 288 279 284 288 268 276 277 295 306 316 329 332 330 325 321 319 318 320 320 319 319 316 321 323 319 324 340 348 1 358 5 2 8 95 82 75 93 97 85
6 283 295 285 298 297 282 282 280 284 290 288 300 308 327 325 329 327 324 321 319 322 323 320 318 317 318 319 324 332 342 349 360 15 9 5 7 6 31 61 72 112 109 101
337 331 327 316 331 310 295 112 325 319 312 303 305 319 330 327 330 326 321 319 327 326 323 318 315 314 317 326 343 7 5 2 17 21 15 12 12 8 9 8 214 107 97 109
281 309 311 310 326 303 26 330 337 321 312 311 316 329 329 324 324 318 320 333 330 324 323 321 315 314 319 349 26 34 25 22 23 21 13 5 3 2 22 39 45 58 84 96
220 271 309 317 308 301 321 74 354 329 313 327 338 330 328 325 322 321 341 335 325 323 321 322 321 322 346 21 29 33 34 29 26 21 11 358 344 349 68 62 47 51 84 90
178 244 269 289 296 287 329 360 333 318 308 348 335 330 331 327 323 328 333 330 328 327 326 333 346 8 27 27 25 31 28 22 15 12 7 0 358 24 50 51 43 41 69 90
260 255 258 263 269 276 306 330 326 312 320 328 328 332 330 322 313 317 328 339 346 350 355 10 26 31 27 23 27 31 22 11 1 4 10 12 10 20 29 35 35 30 28 35
299 293 272 260 262 284 342 321 318 315 318 321 328 329 325 319 318 327 336 346 354 359 9 23 31 30 25 21 21 24 17 2 358 5 16 18 17 19 16 19 22 18 358 334
250 263 286 255 275 304 311 307 309 319 317 323 325 328 331 328 332 338 342 349 354 0 9 18 26 26 22 20 19 17 10 5 10 16 21 19 17 19 11 10 13 8 358 344
251 247 264 277 280 293 303 304 316 324 321 322 327 333 338 333 338 343 349 355 357 1 7 12 19 21 19 17 18 15 11 10 17 20 20 17 16 14 15 9 9 6 360 347
278 259 262 270 292 303 301 322 330 324 327 328 332 343 345 342 347 351 353 357 359 0 5 11 13 15 16 16 18 16 12 9 10 15 13 11 9 5 1 359 353 345 346 335
224 231 251 294 312 315 308 324 337 332 332 333 336 345 350 353 350 352 355 356 359 0 2 6 8 11 11 13 14 12 11 10 7 2 6 2 357 353 347 341 339 339 336 333
Height
1521 1519 1514 1518 1520 1521 1520 1518 1514 1510 1513 1514 1507 1505 1505 1511 1510 1507 1506 1504 1503 1500 1497 1491 1486 1482 1481 1480 1480 1480 1479 1479 1478 1476 1474 1473 1472 1470 1469 1468 1467 1467 1467 1466
1518 1520 1525 1525 1524 1522 1519 1516 1511 1512 1513 1513 1507 1504 1505 1512 1513 1512 1511 1509 1507 1499 1494 1491 1487 1484 1481 1479 1478 1477 1476 1475 1475 1474 1472 1470 1469 1467 1466 1465 1464 1464 1464 1464
1523 1528 1528 1526 1523 1522 1516 1517 1516 1517 1511 1508 1509 1500 1507 1512 1514 1514 1512 1511 1506 1501 1498 1493 1487 1484 1479 1476 1474 1473 1474 1473 1472 1470 1468 1467 1465 1464 1463 1463 1462 1461 1461 1461
1526 1529 1528 1525 1524 1525 1517 1521 1519 1514 1512 1505 1513 1500 1498 1506 1510 1513 1512 1509 1505 1503 1501 1496 1489 1481 1478 1475 1471 1470 1470 1470 1469 1467 1465 1463 1462 1461 1460 1460 1459 1458 1459 1458
1530 1531 1529 1527 1529 1528 1521 1520 1515 1512 1510 1508 1504 1502 1488 1501 1508 1514 1514 1511 1508 1507 1503 1498 1492 1488 1484 1477 1470 1468 1467 1466 1465 1463 1462 1459 1458 1457 1456 1456 1455 1455 1454 1454
1533 1535 1534 1533 1531 1529 1525 1515 1506 1512 1507 1500 1501 1503 1489 1503 1518 1518 1516 1512 1510 1507 1504 1499 1494 1490 1484 1477 1470 1466 1464 1462 1461 1458 1456 1455 1453 1453 1452 1452 1452 1453 1452 1450
1534 1535 1536 1536 1530 1527 1525 1519 1508 1497 1493 1492 1503 1505 1499 1518 1521 1521 1519 1516 1513 1508 1503 1498 1493 1488 1481 1476 1471 1466 1461 1458 1457 1455 1453 1452 1451 1450 1448 1448 1448 1449 1449 1448
1543 1543 1540 1541 1538 1536 1533 1532 1529 1523 1507 1498 1497 1499 1505 1520 1523 1522 1520 1516 1511 1507 1502 1498 1494 1489 1484 1478 1472 1465 1460 1455 1453 1451 1448 1447 1447 1446 1445 1443 1443 1444 1444 1444
1547 1540 1541 1541 1541 1539 1538 1532 1537 1530 1516 1515 1492 1498 1512 1519 1517 1516 1513 1508 1504 1501 1499 1496 1492 1486 1480 1474 1468 1463 1456 1449 1446 1444 1444 1442 1442 1442 1441 1440 1439 1438 1439 1439
1557 1555 1544 1543 1543 1541 1542 1540 1548 1533 1522 1511 1490 1487 1493 1508 1509 1509 1509 1508 1505 1502 1497 1493 1488 1482 1476 1469 1463 1457 1452 1445 1438 1434 1435 1435 1435 1438 1437 1435 1433 1432 1433 1435
1561 1558 1547 1543 1543 1544 1541 1540 1540 1537 1531 1525 1511 1495 1510 1511 1512 1511 1509 1507 1504 1499 1494 1488 1483 1477 1470 1464 1458 1451 1445 1437 1429 1422 1421 1423 1426 1429 1428 1427 1426 1427 1428 1431
1562 1559 1549 1543 1547 1548 1546 1544 1543 1544 1536 1532 1525 1511 1509 1508 1512 1511 1508 1503 1499 1495 1491 1484 1478 1471 1465 1458 1452 1446 1439 1431 1422 1415 1411 1412 1414 1419 1420 1420 1420 1423 1422 1424
1562 1558 1546 1536 1547 1548 1547 1545 1546 1548 1546 1541 1527 1510 1504 1509 1511 1510 1506 1500 1494 1489 1483 1476 1470 1465 1459 1452 1446 1440 1433 1424 1417 1411 1408 1407 1406 1407 1412 1414 1413 1415 1416 1418
1564 1559 1553 1544 1541 1548 1547 1543 1546 1550 1541 1532 1524 1515 1515 1516 1513 1510 1504 1498 1491 1485 1478 1471 1464 1458 1453 1448 1442 1435 1428 1420 1412 1407 1405 1403 1402 1402 1404 1407 1407 1411 1413 1413
1565 1560 1559 1554 1552 1552 1550 1548 1550 1550 1544 1541 1528 1527 1523 1519 1516 1510 1503 1495 1487 1480 1473 1466 1459 1452 1447 1442 1437 1430 1423 1417 1410 1405 1403 1402 1401 1400 1400 1399 1403 1408 1409 1409
1567 1562 1563 1556 1556 1554 1549 1546 1547 1545 1544 1540 1535 1529 1525 1520 1516 1508 1499 1492 1484 1476 1469 1462 1454 1448 1443 1438 1433 1426 1420 1414 1409 1405 1403 1401 1400 1399 1398 1397 1403 1405 1405 1407
1568 1565 1563 1553 1559 1553 1541 1544 1546 1545 1544 1542 1537 1531 1523 1515 1510 1505 1496 1488 1482 1476 1467 1457 1449 1444 1439 1434 1428 1423 1418 1414 1409 1406 1405 1402 1400 1399 1399 1400 1404 1404 1404 1409
1569 1566 1565 1561 1557 1554 1547 1547 1547 1545 1542 1538 1533 1530 1526 1519 1512 1503 1494 1486 1479 1471 1462 1453 1446 1440 1435 1430 1425 1421 1417 1414 1411 1409 1407 1405 1403 1402 1402 1404 1404 1404 1407 1410
1569 1566 1566 1571 1557 1549 1545 1547 1548 1546 1538 1531 1529 1526 1520 1511 1505 1497 1491 1486 1477 1467 1458 1451 1443 1437 1432 1428 1425 1421 1418 1415 1412 1410 1409 1407 1406 1405 1404 1404 1405 1407 1408 1409
1571 1569 1566 1567 1564 1558 1541 1546 1546 1545 1532 1527 1527 1522 1517 1508 1495 1490 1489 1482 1472 1462 1454 1447 1441 1436 1432 1429 1426 1423 1420 1417 1414 1411 1410 1409 1408 1406 1406 1406 1407 1407 1407 1407
1569 1569 1569 1563 1561 1548 1544 1545 1545 1541 1535 1527 1525 1522 1518 1511 1503 1491 1484 1477 1470 1460 1452 1446 1441 1437 1434 1431 1428 1425 1422 1418 1416 1414 1411 1409 1408 1408 1408 1407 1406 1405 1405 1405
1567 1567 1568 1567 1565 1562 1547 1545 1545 1540 1531 1527 1523 1521 1516 1509 1500 1491 1483 1476 1469 1461 1454 1448 1444 1440 1436 1432 1429 1427 1424 1421 1418 1416 1413 1411 1410 1409 1408 1407 1404 1403 1403 1403
1570 1567 1563 1560 1554 1547 1546 1545 1541 1537 1532 1526 1522 1516 1511 1505 1498 1491 1484 1478 1471 1464 1458 1452 1447 1442 1438 1434 1431 1429 1426 1423 1420 1418 1415 1413 1411 1408 1407 1406 1404 1403 1403 1402
1563 1565 1563 1558 1552 1548 1546 1541 1538 1534 1530 1524 1518 1512 1507 1502 1496 1489 1484 1478 1471 1466 1460 1454 1449 1444 1440 1436 1433 1430 1427 1424 1422 1420 1417 1415 1413 1410 1407 1406 1404 1404 1403 1403
1560 1563 1559 1554 1549 1544 1539 1538 1535 1530 1525 1519 1513 1509 1504 1499 1493 1489 1484 1478 1473 1467 1462 1457 1452 1447 1443 1439 1435 1432 1429 1426 1424 1422 1419 1417 1413 1410 1408 1407 1405 1404 1402 1402
1555 1553 1549 1545 1543 1542 1537 1534 1530 1524 1519 1514 1509 1505 1502 1497 1492 1488 1484 1479 1474 1469 1464 1459 1455 1450 1446 1442 1438 1434 1431 1428 1426 1424 1420 1416 1413 1411 1409 1407 1404 1402 1400 1398